{"data":{"norad_id":63968,"intl_designator":"2025-099S","name":"STARLINK-33963","alt_names":[],"object_type":"PAYLOAD","status":"ACTIVE","operator":null,"country":"US","launch_date":"2025-05-13","launch_site_code":"AFETR","launch_vehicle":null,"mission":null,"orbit_class":"UNKNOWN","rcs_meters":null,"size_class":null,"mass_kg":null,"dimensions":null,"purposes":["comms"],"wikipedia_slug":null,"has_3d_model":false,"image_url":null,"decayed_at":null,"tle_current":{"epoch":"2026-09-20T02:39:47.591136Z","epoch_age_seconds":177349,"freshness":"STALE","line1":"1 63968U 25099S   26263.11096749  .00014592  00000+0  53855-3 0  9992","line2":"2 63968  43.0079 157.9489 0003513 242.2479 117.8017 15.27588454 77077","mean_motion":15.27588454,"eccentricity":0.0003513,"inclination_deg":43.0079,"raan_deg":157.9489,"arg_perigee_deg":242.2479,"mean_anomaly_deg":117.8017,"bstar":0.00053855,"rev_number":7707,"period_min":94.266227021378,"perigee_km":480.61345605643,"apogee_km":485.43410762175,"semimajor_km":6861.1607818391,"source":"CELESTRAK","updated_at":"2026-09-21T09:00:35.177113Z"}}}